Starlink 32550

operational
NORAD ID: 62131 Int'l Des: 2024-222 Owner: SPXS Country: US Constellation: starlink
LEOCIRCULAR

About Starlink 32550

Description loading...

Live Position

Loading 3D Globe...

Upcoming Passes

Altitude History

Altitude vs Time

uPlot chart will show altitude changes over time

Two-Line Element Set

1 62131U 24222T 25258.11083401 .00027826 00000-0 10160-2 0 9990
2 62131 43.0041 48.0010 0002379 281.4745 78.5839 15.27607345 45944
Epoch: Sep 15, 2025 • Age: 27 hours

Current Status

Altitude 486.4 km
Velocity 7.63 km/s
Sub-Earth Point 39.42°N, 22.94°E
Launch Date Nov 27, 2024
Age 0.8 years
Type internet

Technical Details

Classification Payload
Mass 730.00 kg
Dry Mass 700.00 kg
Total Mass 730.00 kg
Length 0.30 m
Diameter 4.10 m
Span 29.00 m
Shape Box + pan
Manufacturer SPXS
Bus Type Starlink V2M
Phase Status In Orbit
Owner/State SPXS/US

Large Constellations

Loading constellations...